Location: Newark
(43.9494°N, 6.8108°E)
Time: 15:33:38
(UTC+00:00)

A-11 Canister half - Pass Details

Date: 28 October 2019
Orbit: 1514 x 1685 km, 47.2° (Epoch: 20 November)

Event Time Altitude Azimuth Distance (km) Brightness Sun altitude
Rises 20:16:14 0° 171° (S) 4,925 - -40.8°
Reaches altitude 10° 20:21:45 10° 148° (SSE) 3,938 - -41.7°
Maximum altitude 20:26:01 13° 122° (ESE) 3,654 - -42.4°
Drops below altitude 10° 20:30:15 10° 97° (E) 3,920 - -43.1°
Sets 20:35:39 0° 73° (ENE) 4,885 - -43.9°
